Lentran, United Kingdom

9:20 PM GMT on December 03, 2016 (GMT +0000)
Inverness

Weather History for EGPE - December, 2013

Change the Weather History Date:

Friday, December 13, 2013

  Actual Average Record
Temperature  
Mean Temperature 49 °F -  
Max Temperature 57 °F 42 °F 57 °F (2013)
Min Temperature 41 °F 33 °F 15 °F (2012)
Degree Days  
Heating Degree Days 16    
Moisture  
Dew Point 45 °F    
Average Humidity 85    
Maximum Humidity 100    
Minimum Humidity 76    
Precipitation  
Precipitation 0.00 in - - ()
Sea Level Pressure  
Sea Level Pressure 29.67 in    
Wind  
Wind Speed 6 mph ()    
Max Wind Speed 21 mph    
Max Gust Speed -    
Visibility 5.4 miles    
Events Fog , Rain    
Averages and records for this station are not official NWS values.
T = Trace of Precipitation, MM = Missing Value Source: Averaged Metar Reports

Daily Weather History Graph

Daily Weather History Graph

Search for Another Location

Airport or City:

Trip Planner

Search our weather history database for the weather conditions in past years. The results will help you decide how hot, cold, wet, or windy it might be!

Date:

Astronomy

Dec. 13, 2013 Rise Set
Actual Time 8:50 AM GMT 3:30 PM GMT
Civil Twilight 8:00 AM GMT 4:20 PM GMT
Nautical Twilight 7:08 AM GMT 5:12 PM GMT
Astronomical Twilight 6:20 AM GMT 5:59 PM GMT
Moon 1:39 PM GMT (12/13) 4:20 AM GMT (12/13)
Length of Visible Light 8h 20m
Length of Day
6h 39m
Waxing Gibbous, 86% of the Moon is Illuminated
Dec 13
Waxing Gibbous
Dec 17
Full
Dec 25
Last Quarter
Jan 1
New
Jan 8
First Quarter

Hourly Weather History & Observations

Time (GMT) Temp. Windchill Dew Point Humidity Pressure Visibility Wind Dir Wind Speed Gust Speed Precip Events Conditions
12:20 AM 46.4 °F - 44.6 °F 93% 29.83 in 0.2 mi SSW 2.3 mph - N/A Fog Fog
12:50 AM 44.6 °F - 44.6 °F 100% 29.83 in 0.2 mi Calm Calm - N/A Fog Fog
1:20 AM 44.6 °F - 44.6 °F 100% 29.80 in 0.2 mi Calm Calm - N/A Fog Fog
1:50 AM 44.6 °F - 42.8 °F 93% 29.80 in 0.2 mi Calm Calm - N/A Fog Fog
2:20 AM 44.6 °F - 42.8 °F 93% 29.77 in 0.1 mi Calm Calm - N/A Fog Fog
2:50 AM 44.6 °F - 44.6 °F 100% 29.77 in 0.2 mi Variable 2.3 mph - N/A Fog Fog
3:20 AM 44.6 °F - 44.6 °F 100% 29.74 in - Calm Calm - N/A Fog Fog
3:50 AM 50.0 °F - 50.0 °F 100% 29.74 in 5.6 mi Variable 3.5 mph - N/A   Mostly Cloudy
4:20 AM 50.0 °F - 50.0 °F 100% 29.71 in 5.6 mi Calm Calm - N/A   Mostly Cloudy
4:50 AM 48.2 °F - 46.4 °F 93% 29.71 in 6.2 mi Calm Calm - N/A   Mostly Cloudy
5:20 AM 48.2 °F - 46.4 °F 93% 29.71 in 6.2 mi South 4.6 mph - N/A   Partly Cloudy
5:50 AM 50.0 °F - 48.2 °F 94% 29.71 in 6.2 mi Calm Calm - N/A   Mostly Cloudy
6:20 AM 51.8 °F - 48.2 °F 88% 29.68 in 6.2 mi Calm Calm - N/A   Mostly Cloudy
6:50 AM 53.6 °F - 50.0 °F 88% 29.68 in 6.2 mi South 11.5 mph - N/A   Mostly Cloudy
7:20 AM 55.4 °F - 50.0 °F 82% 29.68 in 6.2 mi SSE 13.8 mph - N/A   Mostly Cloudy
7:50 AM 53.6 °F - 50.0 °F 88% 29.65 in 6.2 mi SSE 15.0 mph - N/A   Scattered Clouds
8:20 AM 53.6 °F - 48.2 °F 82% 29.65 in 6.2 mi South 11.5 mph - N/A   Scattered Clouds
8:50 AM 53.6 °F - 48.2 °F 82% 29.65 in 6.2 mi SSE 15.0 mph - N/A   Scattered Clouds
9:20 AM 55.4 °F - 48.2 °F 77% 29.65 in 6.2 mi SSE 12.7 mph - N/A   Scattered Clouds
9:50 AM 55.4 °F - 48.2 °F 77% 29.65 in 6.2 mi SSE 12.7 mph - N/A   Scattered Clouds
10:20 AM 55.4 °F - 50.0 °F 82% 29.62 in 6.2 mi South 9.2 mph - N/A   Scattered Clouds
10:50 AM 55.4 °F - 50.0 °F 82% 29.62 in 6.2 mi South 5.8 mph - N/A   Scattered Clouds
11:20 AM 55.4 °F - 50.0 °F 82% 29.62 in 6.2 mi South 16.1 mph - N/A   Scattered Clouds
11:50 AM 57.2 °F - 50.0 °F 77% 29.59 in 6.2 mi South 10.4 mph - N/A   Scattered Clouds
12:20 PM 57.2 °F - 50.0 °F 77% 29.59 in 6.2 mi South 8.1 mph - N/A   Scattered Clouds
12:50 PM 57.2 °F - 50.0 °F 77% 29.59 in 6.2 mi South 4.6 mph - N/A   Scattered Clouds
1:20 PM 57.2 °F - 50.0 °F 77% 29.56 in 6.2 mi SSW 2.3 mph - N/A   Scattered Clouds
1:50 PM 55.4 °F - 48.2 °F 77% 29.56 in 6.2 mi West 4.6 mph - N/A   Scattered Clouds
2:20 PM 51.8 °F - 48.2 °F 88% 29.59 in 6.2 mi SSW 16.1 mph - N/A   Mostly Cloudy
2:50 PM 50.0 °F - 46.4 °F 87% 29.59 in 6.2 mi SW 16.1 mph - N/A Rain Light Rain Showers
3:20 PM 48.2 °F - 44.6 °F 87% 29.59 in 6.2 mi SSW 15.0 mph - N/A Rain Light Rain Showers
3:50 PM 48.2 °F - 42.8 °F 82% 29.59 in 6.2 mi SSW 18.4 mph - N/A   Partly Cloudy
4:50 PM 46.4 °F 39.5 °F 41.0 °F 81% 29.62 in 6.2 mi SSW 17.3 mph - N/A   Partly Cloudy
5:20 PM 46.4 °F 40.4 °F 41.0 °F 81% 29.65 in 6.2 mi South 13.8 mph - N/A   Partly Cloudy
5:50 PM 46.4 °F 40.4 °F 41.0 °F 81% 29.65 in 6.2 mi SSW 13.8 mph - N/A   Partly Cloudy
6:20 PM 46.4 °F 41.9 °F 39.2 °F 76% 29.65 in 6.2 mi SW 9.2 mph - N/A   Partly Cloudy
6:50 PM 44.6 °F 40.7 °F 39.2 °F 81% 29.65 in 6.2 mi SSW 6.9 mph - N/A   Partly Cloudy
7:20 PM 44.6 °F 43.1 °F 39.2 °F 81% 29.65 in 6.2 mi Variable 3.5 mph - N/A   Partly Cloudy
7:50 PM 44.6 °F - 39.2 °F 81% 29.65 in 6.2 mi Calm Calm - N/A   Partly Cloudy
8:20 PM 44.6 °F 41.4 °F 39.2 °F 81% 29.65 in 6.2 mi SW 5.8 mph - N/A   Partly Cloudy
8:50 PM 41.0 °F - 37.4 °F 87% 29.65 in 6.2 mi Variable 2.3 mph - N/A   Partly Cloudy
9:20 PM 42.8 °F 36.2 °F 37.4 °F 81% 29.65 in 6.2 mi SW 12.7 mph - N/A   Partly Cloudy
9:50 PM 42.8 °F 35.1 °F 37.4 °F 81% 29.68 in 6.2 mi SSW 16.1 mph - N/A   Partly Cloudy
10:20 PM 42.8 °F 35.4 °F 35.6 °F 76% 29.65 in 6.2 mi SSW 15.0 mph - N/A   Partly Cloudy
10:50 PM 41.0 °F 35.2 °F 35.6 °F 81% 29.68 in 6.2 mi SW 9.2 mph - N/A   Scattered Clouds
11:20 PM 42.8 °F 35.4 °F 37.4 °F 81% 29.68 in 6.2 mi SSW 15.0 mph - N/A   Partly Cloudy
11:50 PM 41.0 °F 31.6 °F 37.4 °F 87% 29.68 in 6.2 mi SSW 20.7 mph - N/A   Unknown